Puyallup, WA
on Wednesday, February 6, 2013

Wednesday
Previous Day Next Day
Daily Summary
 ActualAverage (KSEA)Record (KSEA)
Temperature
Mean Temperature °F 43°F  
Max Temperature 50°F 49°F 64°F (1993)
Min Temperature 39°F 37°F 18°F (1989)
Degree Days
Heating Degree Days 20 22  
Month to date heating degree days 132  
Since 1 July heating degree days 2781  
Cooling Degree Days 0 0  
Month to date cooling degree days 0  
Year to date cooling degree days 0  
Moisture
Dew Point 39°F   
Average Humidity 84    
Maximum Humidity 100    
Minimum Humidity 50    
Precipitation
Precipitation 0.01 in 0.13 in 1.54 in (1960)
Month to date precipitation 0.80  
Year to date precipitation 6.37  
Snow
Snow 0.00 in in T in (1990)
Month to date snowfall  
Since 1 July snowfall  
Snow Depth in   
Wind
Wind Speed 2 mph   
Max Wind Speed 9 mph   
Max Gust Speed 20 mph   
Visibility 10 miles   
Events Rain   

Key: T is trace of precipitation, MM is missing value
Source: NWS Daily Summary
Time(PST)TemperatureDew PointHumidity Pressure Visibility Wind DirectionWind SpeedGust SpeedPrecipitationEvents Conditions
12:15 AM 41.0°F 41.0°F 100% 29.98 in 10.0 miles Calm Calm - N/A Rain Light Rain
12:35 AM 41.0°F 41.0°F 100% 29.98 in 10.0 miles Calm Calm - N/A   Mostly Cloudy
12:55 AM 41.0°F 41.0°F 100% 29.99 in 10.0 miles Calm Calm - N/A   Scattered Clouds
1:15 AM 41.0°F 39.2°F 93% 29.99 in 10.0 miles SW 4.6 mph - N/A   Partly Cloudy
1:35 AM 41.0°F 39.2°F 93% 30.00 in 10.0 miles SSW 4.6 mph - N/A   Partly Cloudy
1:55 AM 41.0°F 39.2°F 93% 30.00 in 10.0 miles Calm Calm - N/A   Scattered Clouds
2:15 AM 41.0°F 39.2°F 93% 30.00 in 10.0 miles Calm Calm - N/A   Scattered Clouds
2:35 AM 41.0°F 39.2°F 93% 30.00 in 10.0 miles SSW 4.6 mph - N/A Rain Light Rain
2:55 AM 41.0°F 39.2°F 93% 30.00 in 10.0 miles Calm Calm - N/A   Overcast
3:15 AM 41.0°F 39.2°F 93% 30.01 in 10.0 miles Calm Calm - N/A   Overcast
3:35 AM 41.0°F 41.0°F 100% 30.01 in 10.0 miles Calm Calm - N/A   Mostly Cloudy
3:55 AM 41.0°F 41.0°F 100% 30.01 in 10.0 miles Calm Calm - N/A Rain Light Rain
4:15 AM 41.0°F 41.0°F 100% 30.02 in 7.0 miles SW 3.5 mph - N/A   Overcast
4:35 AM 41.0°F 41.0°F 100% 30.02 in 10.0 miles SSW 4.6 mph - N/A   Mostly Cloudy
4:55 AM 41.0°F 41.0°F 100% 30.03 in 10.0 miles Calm Calm - N/A   Mostly Cloudy
5:15 AM 41.0°F 39.2°F 93% 30.03 in 10.0 miles Calm Calm - N/A   Mostly Cloudy
5:35 AM 41.0°F 39.2°F 93% 30.04 in 10.0 miles Calm Calm - N/A   Overcast
5:55 AM 41.0°F 41.0°F 100% 30.04 in 5.0 miles Calm Calm - N/A Rain Light Rain
6:15 AM 41.0°F 41.0°F 100% 30.05 in 4.0 miles Calm Calm - N/A Rain Light Rain
6:35 AM 41.0°F 41.0°F 100% 30.05 in 10.0 miles Calm Calm - 0.01 in   Overcast
6:55 AM 41.0°F 41.0°F 100% 30.05 in 7.0 miles Calm Calm - 0.01 in Rain Light Rain
7:15 AM 41.0°F 41.0°F 100% 30.06 in 10.0 miles Calm Calm - N/A Rain Light Rain
7:35 AM 41.0°F 41.0°F 100% 30.06 in 7.0 miles Calm Calm - N/A Rain Light Rain
7:55 AM 41.0°F 41.0°F 100% 30.06 in 10.0 miles Calm Calm - N/A   Overcast
8:15 AM 41.0°F 41.0°F 100% 30.06 in 10.0 miles Calm Calm - N/A   Mostly Cloudy
8:35 AM 41.0°F 41.0°F 100% 30.06 in 10.0 miles South 4.6 mph - N/A   Partly Cloudy
8:55 AM 41.0°F 41.0°F 100% 30.05 in 10.0 miles Calm Calm - N/A   Scattered Clouds
9:15 AM 42.8°F 41.0°F 93% 30.05 in 10.0 miles Calm Calm - N/A   Partly Cloudy
9:35 AM 44.6°F 39.2°F 81% 30.05 in 10.0 miles Calm Calm - N/A   Clear
9:55 AM 44.6°F 39.2°F 81% 30.04 in 10.0 miles Calm Calm - N/A   Clear
10:15 AM 46.4°F 39.2°F 76% 30.04 in 10.0 miles Calm Calm - N/A   Clear
10:35 AM 46.4°F 37.4°F 71% 30.04 in 10.0 miles Calm Calm - N/A   Partly Cloudy
10:55 AM 48.2°F 37.4°F 66% 30.04 in 10.0 miles SSW 6.9 mph - N/A   Clear
11:15 AM 48.2°F 37.4°F 66% 30.03 in 10.0 miles SSW 6.9 mph - N/A   Partly Cloudy
11:35 AM 48.2°F 37.4°F 66% 30.03 in 10.0 miles South 6.9 mph - N/A   Mostly Cloudy
11:55 AM 48.2°F 37.4°F 66% 30.02 in 10.0 miles South 8.1 mph - N/A   Partly Cloudy
12:15 PM 48.2°F 37.4°F 66% 30.01 in 10.0 miles SSW 6.9 mph - N/A   Clear
12:35 PM 48.2°F 37.4°F 66% 30.00 in 10.0 miles SSW 8.1 mph - N/A   Clear
12:55 PM 50.0°F 37.4°F 62% 30.00 in 10.0 miles SSW 9.2 mph - N/A   Clear
1:15 PM 48.2°F 37.4°F 66% 29.99 in 10.0 miles SW 8.1 mph - N/A   Mostly Cloudy
1:35 PM 48.2°F 37.4°F 66% 29.99 in 10.0 miles SSW 8.1 mph - N/A   Mostly Cloudy
1:55 PM 48.2°F 37.4°F 66% 29.98 in 10.0 miles SSW 6.9 mph - N/A   Partly Cloudy
2:15 PM 48.2°F 37.4°F 66% 29.98 in 10.0 miles SSW 8.1 mph - N/A   Partly Cloudy
2:35 PM 48.2°F 39.2°F 71% 29.97 in 10.0 miles Calm Calm - N/A Rain Light Rain
2:55 PM 46.4°F 39.2°F 76% 29.97 in 10.0 miles Calm Calm - N/A   Scattered Clouds
3:15 PM 46.4°F 41.0°F 81% 29.96 in 10.0 miles Calm Calm - N/A   Partly Cloudy
3:35 PM 46.4°F 41.0°F 81% 29.95 in 10.0 miles Calm Calm - N/A   Partly Cloudy
3:55 PM 46.4°F 39.2°F 76% 29.95 in 10.0 miles SSW 3.5 mph - N/A   Scattered Clouds
4:15 PM 46.4°F 39.2°F 76% 29.95 in 8.0 miles Calm Calm - N/A Rain Light Rain
4:35 PM 46.4°F 39.2°F 76% 29.94 in 10.0 miles Calm Calm - N/A   Partly Cloudy
4:55 PM 46.4°F 39.2°F 76% 29.94 in 10.0 miles Calm Calm - N/A   Clear
5:15 PM 46.4°F 37.4°F 71% 29.93 in 10.0 miles South 5.8 mph - N/A   Clear
5:35 PM 46.4°F 37.4°F 71% 29.92 in 10.0 miles Calm Calm - N/A   Scattered Clouds
5:55 PM 46.4°F 37.4°F 71% 29.91 in 10.0 miles Calm Calm - N/A   Scattered Clouds
6:15 PM 46.4°F 37.4°F 71% 29.90 in 10.0 miles Calm Calm - N/A   Mostly Cloudy
6:35 PM 46.4°F 37.4°F 71% 29.89 in 10.0 miles Calm Calm - N/A   Mostly Cloudy
6:55 PM 44.6°F 37.4°F 76% 29.88 in 10.0 miles Calm Calm - N/A   Scattered Clouds
7:15 PM 42.8°F 39.2°F 87% 29.87 in 10.0 miles Calm Calm - N/A   Mostly Cloudy
7:35 PM 42.8°F 39.2°F 87% 29.87 in 10.0 miles Calm Calm - N/A   Mostly Cloudy
7:55 PM 42.8°F 39.2°F 87% 29.86 in 10.0 miles Calm Calm - N/A   Scattered Clouds
8:15 PM 41.0°F 39.2°F 93% 29.85 in 10.0 miles Calm Calm - N/A   Mostly Cloudy
8:35 PM 44.6°F 37.4°F 76% 29.84 in 10.0 miles Calm Calm - N/A   Mostly Cloudy
8:55 PM 42.8°F 39.2°F 87% 29.83 in 10.0 miles Calm Calm - N/A   Scattered Clouds
9:15 PM 42.8°F 39.2°F 87% 29.82 in 10.0 miles Calm Calm - N/A   Mostly Cloudy
9:35 PM 41.0°F 39.2°F 93% 29.81 in 10.0 miles Calm Calm - N/A   Partly Cloudy
9:55 PM 41.0°F 39.2°F 93% 29.81 in 10.0 miles Calm Calm - N/A   Clear
10:15 PM 39.2°F 39.2°F 100% 29.81 in 10.0 miles Calm Calm - N/A   Partly Cloudy
10:35 PM 39.2°F 39.2°F 100% 29.80 in 10.0 miles Calm Calm - N/A   Clear
10:55 PM 46.4°F 35.6°F 66% 29.80 in 10.0 miles South 5.8 mph - N/A   Partly Cloudy
11:15 PM 48.2°F 32.0°F 54% 29.80 in 10.0 miles SSW 5.8 mph - N/A   Clear
11:35 PM 50.0°F 32.0°F 50% 29.80 in 10.0 miles South 6.9 mph - N/A   Clear
11:55 PM 50.0°F 33.8°F 54% 29.80 in 10.0 miles South 8.1 mph 19.6 mph N/A   Scattered Clouds
Moon Phase
Feb. 06 Feb. 10 Feb. 17 Feb. 25 Mar. 04
Sunrise:07:27 AM (PST) Moon Rise:04:23 AM (PST)2/6
Sunset:05:20 PM (PST) Moon Set:01:36 PM (PST)2/6

Copyright © 2014 The Weather Underground, Inc.